Torna al catalogo

GEESAT 4-09

AttivoComunicazioniLEO
NORAD 65127·PAYLOAD·🇨🇳 China

Lanciato Aug 8, 2025 da Yellow Sea Launch Area

Loading…

Prossimi Passaggi (prossime 24 ore)

TLE

AggiornatoSource: Space-Track

Epoca: Sep 14, 2026, 22:15 UTC

1 65127U 25170J   26257.92748329  .00001190  00000-0  17772-3 0  9990
2 65127  49.9912 149.4105 0022281  14.5892 345.5684 14.81635905 59309

Traccia GEESAT 4-09 in tempo reale con AllMySat

Download on the App Store